Location: Bathurst
(33.4193°S, 149.5775°E)
Time: 07:09:15
(UTC+11:00)

N. Korean satellite - Visible Passes

Search period start: 20 February 2018 00:00
Search period end: 02 March 2018 00:00
Orbit: 459 x 514 km, 97.2° (Epoch: 18 February)

Date Brightness Start Highest point End Pass type
(mag) Time Alt. Az. Time Alt. Az. Time Alt. Az.
20 Feb 10.2 06:05:32 10° ENE 06:07:50 16° ESE 06:10:09 10° SSE visible
20 Feb 10.4 20:43:59 10° SW 20:45:20 12° WSW 20:46:39 10° W visible
21 Feb 9.5 20:18:54 10° SSW 20:21:47 23° WSW 20:24:37 10° NW visible
24 Feb 10.2 06:04:11 10° ENE 06:06:23 15° ESE 06:08:36 10° SE visible
24 Feb 10.4 20:42:25 10° SW 20:43:50 12° WSW 20:45:14 10° W visible
25 Feb 9.4 20:17:22 10° SSW 20:20:16 24° WSW 20:23:08 10° NW visible
28 Feb 10.2 06:02:48 10° ENE 06:04:53 14° ESE 06:06:58 10° SE visible
28 Feb 10.3 20:40:46 10° SW 20:42:16 12° WSW 20:43:46 10° W visible
01 Mar 9.2 20:15:47 10° SSW 20:18:42 25° WSW 20:21:35 10° NW visible
